Location: Marsån
(66.4167°N, 22.2833°E)
Time: 12:02:31
(UTC+00:00)

SL-08 R/B - Pass Details

Date: 24 February 2024
Orbit: 670 x 735 km, 98.5° (Epoch: 15 April)

Event Time Altitude Azimuth Distance (km) Brightness Sun altitude
Rises 17:32:03 0° 21° (NNE) 3,152 6.5 -13.4°
Reaches altitude 10° 17:34:22 10° 24° (NNE) 2,218 5.7 -13.7°
Maximum altitude 17:39:13 69° 107° (ESE) 763 3.3 -14.2°
Drops below altitude 10° 17:43:57 10° 192° (SSW) 2,163 5.9 -14.6°
Sets 17:46:12 0° 195° (SSW) 3,067 6.7 -14.8°
